Location: ?????????
(41.1143°N, 22.7905°E)
Time: 05:07:18
(UTC+00:00)

COSMO-SKYMED 1 - Pass Details

Date: 17 March 2026
Orbit: 576 x 578 km, 97.9° (Epoch: 15 April)

Event Time Altitude Azimuth Distance (km) Brightness Sun altitude
Rises 03:47:09 0° 155° (SSE) 2,779 6.1 -10.3°
Reaches altitude 10° 03:49:19 10° 151° (SSE) 1,885 5.3 -9.9°
Maximum altitude 03:53:18 55° 74° (ENE) 700 3.3 -9.2°
Drops below altitude 10° 03:57:20 10° 357° (N) 1,898 5.1 -8.4°
Sets 03:59:31 0° 353° (N) 2,802 5.9 -8.0°
